Location: Larkspur
(54.4391°N, 113.7691°W)
Time: 22:07:37
(UTC+00:00)

Envisat - Pass Details

Date: 15 June 2023
Orbit: 763 x 764 km, 98.2° (Epoch: 25 September)

Event Time Altitude Azimuth Distance (km) Brightness Sun altitude
Rises 09:55:19 0° 27° (NNE) 3,243 8.9 -6.7°
Reaches altitude 10° 09:58:53 10° 53° (NE) 2,311 6.9 -6.4°
Maximum altitude 10:01:26 14° 84° (E) 2,057 5.8 -6.2°
Drops below altitude 10° 10:03:57 10° 114° (ESE) 2,303 5.6 -6.0°
Sets 10:07:29 0° 140° (SE) 3,223 6.1 -5.7°
